• Join FlightAware (Why Join?)
  • Login
  • US Flag 
08:02AM EDT


 

Airport Tracker/Info


-or-


 

Live Flight TrackerFlight Track Log ✈ SWA127 ✈ 10-Apr-2013 ✈ KPIT - KMCO

Flight Track Log - Related Links

Times and Time Zones

All times are in EDT time to prevent confusion due to time zone crossing. See the SWA127 flight status page for this flight to view local times or setup timezone preferences in your user account.

Time Position Orientation Groundspeed Altitude Reporting Facility
EDT Latitude Longitude Course Direction KTS MPH feet Rate Location/Type
06:37AM 40.4692 -80.3183 180° South 220 253 4,200  Level Cleveland Center
06:38AM 40.3836 -80.3133 177° South 258 297 7,000 2,760 Climbing Cleveland Center
06:39AM 40.3150 -80.3081 177° South 275 316 9,800 2,520 Climbing Cleveland Center
06:40AM 40.2378 -80.3056 179° South 316 364 12,100 2,280 Climbing Cleveland Center
06:41AM 40.1419 -80.3033 179° South 354 407 14,400 2,580 Climbing Cleveland Center
06:42AM 39.7975 -80.2500 180° South  Level FlightAware Approximate
06:42AM 40.0417 -80.2983 178° South 362 417 17,300  Level Cleveland Center
06:43AM 39.9397 -80.2933 178° South 362 417 18,000 1,260 Climbing Cleveland Center
06:45AM 39.7411 -80.2872 179° South 366 421 21,100 1,680 Climbing Washington Center
06:46AM 39.6286 -80.2825 178° South 386 444 23,100 1,740 Climbing Washington Center
06:47AM 39.5122 -80.2778 178° South 402 463 24,600 1,560 Climbing Washington Center
06:48AM 39.3936 -80.2728 178° South 423 487 26,300 1,500 Climbing Washington Center
06:49AM 39.2706 -80.2700 179° South 434 499 27,700 1,500 Climbing Washington Center
06:50AM 39.1508 -80.2972 190° South 440 506 29,300 1,800 Climbing Washington Center
06:51AM 39.0347 -80.3297 192° South 440 506 31,400 1,560 Climbing Washington Center
06:52AM 38.9186 -80.3650 193° South 435 501 32,500 780 Climbing Washington Center
06:53AM 38.8025 -80.4000 193° South 435 501 33,000 780 Climbing Washington Center
06:54AM 38.6714 -80.4475 196° South 444 511 34,100 1,140 Climbing Washington Center
06:55AM 38.5661 -80.4750 192° South 439 505 35,300 900 Climbing Washington Center
06:56AM 38.4519 -80.5100 194° South 434 499 36,000 300 Climbing Washington Center
06:57AM 38.3339 -80.5419 192° South 434 499 36,000  Level Washington Center
06:58AM 38.2017 -80.5594 186° South 434 499 36,000  Level Washington Center
06:59AM 38.0844 -80.5753 186° South 434 499 36,000  Level Washington Center
07:00AM 37.9647 -80.5939 187° South 434 499 36,000  Level Washington Center
07:01AM 37.8450 -80.6122 187° South 434 499 36,000  Level Washington Center
07:03AM 37.6147 -80.6414 186° South 423 487 36,000  Level Atlanta Center
07:04AM 37.5108 -80.6589 188° South 423 487 36,000  Level Atlanta Center
07:05AM 37.3925 -80.6747 186° South 423 487 36,000  Level Atlanta Center
07:06AM 37.2761 -80.6900 186° South 423 487 36,000  Level Atlanta Center
07:07AM 37.1475 -80.7058 186° South 423 487 36,000  Level Atlanta Center
07:08AM 37.0292 -80.7239 187° South 423 487 36,000  Level Atlanta Center
07:09AM 36.9125 -80.7339 184° South 423 487 36,000  Level Atlanta Center
07:10AM 36.7981 -80.7439 184° South 423 487 36,000  Level Atlanta Center
07:11AM 36.6839 -80.7564 185° South 417 480 36,000  Level Atlanta Center
07:12AM 36.5675 -80.7689 185° South 424 488 36,000  Level Atlanta Center
07:13AM 36.4508 -80.7814 185° South 424 488 36,000  Level Atlanta Center
07:14AM 36.3325 -80.7939 185° South 424 488 36,000  Level Atlanta Center
07:15AM 36.2139 -80.8092 186° South 424 488 36,000  Level Atlanta Center
07:16AM 36.0975 -80.8189 184° South 425 489 36,000  Level Atlanta Center
07:17AM 35.9808 -80.8311 185° South 425 489 36,000  Level Atlanta Center
07:18AM 35.8747 -80.8431 185° South 425 489 36,000  Level Atlanta Center
07:19AM 35.7561 -80.8553 185° South 425 489 36,000  Level Atlanta Center
07:20AM 35.6378 -80.8678 185° South 425 489 36,000  Level Atlanta Center
07:21AM 35.5192 -80.8825 186° South 425 489 36,000  Level Atlanta Center
07:22AM 35.3881 -80.8950 184° South 425 489 36,000  Level Atlanta Center
07:23AM 35.2694 -80.9125 187° South 425 489 36,000  Level Atlanta Center
07:24AM 35.1508 -80.9219 184° South 425 489 36,000  Level Atlanta Center
07:25AM 34.9728 -80.9419 185° South 431 496 36,000  Level Jacksonville Center
07:26AM 34.8522 -80.9547 185° South 431 496 36,000  Level Jacksonville Center
07:27AM 34.7356 -80.9675 185° South 431 496 36,000  Level Jacksonville Center
07:28AM 34.6186 -80.9675 180° South 424 488 36,000  Level Jacksonville Center
07:29AM 34.4939 -80.9906 189° South 431 496 36,000  Level Jacksonville Center
07:30AM 34.3628 -81.0061 186° South 431 496 36,000  Level Jacksonville Center
07:31AM 34.2503 -81.0161 184° South 432 497 36,000  Level Jacksonville Center
07:32AM 34.1314 -81.0311 186° South 427 491 36,000  Level Jacksonville Center
07:33AM 34.0231 -81.0358 182° South 422 486 36,000  Level Jacksonville Center
07:34AM 33.9064 -81.0483 185° South 422 486 36,000  Level Jacksonville Center
07:35AM 33.7856 -81.0608 185° South 422 486 36,000  Level Jacksonville Center
07:36AM 33.6564 -81.0736 185° South 422 486 36,000  Level Jacksonville Center
07:37AM 33.5356 -81.0836 184° South 422 486 36,000  Level Jacksonville Center
07:38AM 33.4189 -81.0958 185° South 422 486 36,000  Level Jacksonville Center
07:39AM 33.3103 -81.1031 183° South 428 493 36,000  Level Jacksonville Center
07:40AM 33.1875 -81.1156 185° South 428 493 36,000  Level Jacksonville Center
07:41AM 33.0728 -81.1250 184° South 428 493 36,000  Level Jacksonville Center
07:42AM 32.9517 -81.1350 184° South 428 493 36,000  Level Jacksonville Center
07:43AM 32.8308 -81.1422 183° South 433 498 36,000  Level Jacksonville Center
07:44AM 32.7142 -81.1519 184° South 433 498 36,000  Level Jacksonville Center
07:45AM 32.5847 -81.1642 185° South 433 498 36,000  Level Jacksonville Center
07:46AM 32.4764 -81.1761 185° South 433 498 36,000  Level Jacksonville Center
07:47AM 32.3514 -81.1833 183° South 440 506 36,000  Level Jacksonville Center
07:48AM 32.2344 -81.1931 184° South 440 506 36,000  Level Jacksonville Center
07:49AM 32.1178 -81.2025 184° South 440 506 36,000  Level Jacksonville Center
07:50AM 31.9986 -81.1972 178° South 435 501 36,000  Level Jacksonville Center
07:51AM 31.8692 -81.1925 178° South 435 501 36,000  Level Jacksonville Center
07:52AM 31.7606 -81.1894 179° South 430 495 36,000  Level Jacksonville Center
07:53AM 31.6311 -81.1844 178° South 430 495 36,000  Level Jacksonville Center
07:54AM 31.5119 -81.1794 178° South 430 495 36,000  Level Jacksonville Center
07:55AM 31.4033 -81.1767 179° South 430 495 36,000  Level Jacksonville Center
07:56AM 31.2739 -81.1742 179° South 435 501 36,000  Level Jacksonville Center
07:57AM 31.1528 -81.1714 179° South 435 501 36,000 -480 Level Jacksonville Center
07:58AM 31.0336 -81.1639 177° South 435 501 35,100 -960 Descending Jacksonville Center
07:59AM 30.9144 -81.1636 180° South 440 506 34,100 -600 Descending Jacksonville Center
08:00AM 30.7933 -81.1561 177° South 440 506 34,000 -120 Descending Jacksonville Center
08:01AM 30.6722 -81.1536 179° South 440 506 33,900 -600 Descending Jacksonville Center
08:02AM 30.5489 -81.1511 179° South 440 506 32,800 -1,020 Descending Jacksonville Center
08:03AM 30.4217 -81.1486 179° South 440 506 31,900 -420 Descending Jacksonville Center
08:04AM 30.3006 -81.1433 178° South 440 506 32,000  Climbing Jacksonville Center
08:05AM 30.1731 -81.1411 179° South 445 512 32,000 -60 Level Jacksonville Center
08:06AM 30.0478 -81.1386 179° South 445 512 31,900 -1,200 Descending Jacksonville Center
08:07AM 29.9244 -81.1336 178° South 445 512 29,600 -2,340 Descending Jacksonville Center
08:08AM 29.8033 -81.1308 179° South 445 512 27,300 -2,400 Descending Jacksonville Center
08:09AM 29.6864 -81.1283 179° South 439 505 24,900 -2,280 Descending Jacksonville Center
08:10AM 29.5736 -81.1231 178° South 428 493 22,800 -2,100 Descending Jacksonville Center
08:11AM 29.4714 -81.1178 177° South 400 460 20,700 -2,100 Descending Jacksonville Center
08:12AM 29.3689 -81.1150 179° South 381 438 18,700 -1,980 Descending Jacksonville Center
08:13AM 29.2667 -81.1119 179° South 369 425 16,800 -2,040 Descending Jacksonville Center
08:14AM 29.1664 -81.1019 175° South 363 418 14,700 -2,100 Descending Jacksonville Center
08:15AM 29.0639 -81.0967 177° South 363 418 12,600 -1,380 Descending Jacksonville Center
08:16AM 28.9719 -81.0842 173° South 358 412 12,000 -1,080 Descending Jacksonville Center
08:17AM 28.8667 -81.0667 172° South 294 338 10,300 -1,560 Descending Orlando TRACON
08:18AM 28.8000 -81.0667 180° South 287 330 8,600 -1,740 Descending Orlando TRACON
08:19AM 28.7333 -81.1167 213° Southwest 285 328 6,900 -1,800 Descending Orlando TRACON
08:20AM 28.6833 -81.1833 229° Southwest 280 322 5,000 -1,860 Descending Orlando TRACON
08:21AM 28.6333 -81.2500 229° Southwest 261 300 3,200 -1,020 Descending Orlando TRACON
08:22AM 28.5833 -81.3000 221° Southwest 199 229 3,000 -480 Descending Orlando TRACON
08:23AM 28.5333 -81.3000 180° South 170 196 2,200 -900 Descending Orlando TRACON
08:24AM 28.4833 -81.3000 180° South 152 175 1,200 -900 Descending Orlando TRACON
08:25AM 28.4500 -81.3000 180° South 125 144 600 -720 Descending Orlando TRACON
08:27AM 28.4294 -81.3090 180° South  Level Estimated
08:34AM 28.4294 -81.3090 180° South  Level Estimated
08:35AM 28.4294 -81.3090 180° South  Level Estimated
08:36AM 28.4294 -81.3090 180° South  Level Estimated
08:37AM 28.4294 -81.3090 180° South  Level Estimated